Atka, AK

1:35 AM HDT on August 20, 2017 (GMT -0900)
Atka

Weather History for PAAK - December, 2012

Change the Weather History Date:

Saturday, December 1, 2012

  Actual Average (PADK) Record (PADK)
Temperature  
Mean Temperature 33 °F -  
Max Temperature 42 °F 39 °F 47 °F (1973)
Min Temperature 24 °F 32 °F 22 °F (1958)
Degree Days  
Heating Degree Days 32    
Moisture  
Dew Point -15 °F    
Average Humidity 12    
Maximum Humidity 13    
Minimum Humidity 11    
Precipitation  
Precipitation 0.00 in - - ()
Sea Level Pressure  
Sea Level Pressure 30.29 in    
Wind  
Wind Speed 6 mph (SSE)    
Max Wind Speed 18 mph    
Max Gust Speed 24 mph    
Visibility 10 miles    
Events      
Averages and records for this station are not official NWS values.
T = Trace of Precipitation, MM = Missing Value Source: NWS Daily Summary

Daily Weather History Graph

Daily Weather History Graph

Search for Another Location

Airport or City:

Trip Planner

Search our weather history database for the weather conditions in past years. The results will help you decide how hot, cold, wet, or windy it might be!

Date:

Astronomy

Dec. 01, 2012 Rise Set
Actual Time 9:24 AM HST 5:27 PM HST
Civil Twilight 8:44 AM HST 6:07 PM HST
Nautical Twilight 8:01 AM HST 6:50 PM HST
Astronomical Twilight 7:20 AM HST 7:31 PM HST
Moon 8:39 PM HST (12/1) 11:40 AM HST (12/1)
Length of Visible Light 9h 22m
Length of Day
8h 02m
Waning Gibbous, 90% of the Moon is Illuminated
Dec 1
Waning Gibbous
Dec 6
Last Quarter
Dec 12
New
Dec 19
First Quarter
Dec 28
Full

Hourly Weather History & Observations

Time (HST) Temp. Windchill Dew Point Humidity Pressure Visibility Wind Dir Wind Speed Gust Speed Precip Events Conditions
12:16 AM 26.6 °F 22.6 °F -18.4 °F 13% 30.22 in 9.0 mi ESE 3.5 mph - N/A   Partly Cloudy
12:36 AM 28.4 °F 20.4 °F -18.4 °F 12% 30.21 in 10.0 mi ESE 8.1 mph - N/A   Clear
12:56 AM 32.0 °F 23.0 °F -14.8 °F 13% 30.22 in 10.0 mi SE 11.5 mph - N/A   Clear
1:16 AM 33.8 °F 26.4 °F -14.8 °F 12% 30.21 in 10.0 mi East 9.2 mph 17.3 mph N/A   Clear
1:36 AM 33.8 °F 25.8 °F -14.8 °F 12% 30.22 in 10.0 mi ESE 10.4 mph 18.4 mph N/A   Clear
1:56 AM 35.6 °F 26.2 °F -14.8 °F 11% 30.22 in 10.0 mi East 15.0 mph 19.6 mph N/A   Clear
2:16 AM 33.8 °F - -14.8 °F 12% 30.22 in 10.0 mi Calm Calm - N/A   Clear
2:36 AM 30.2 °F 25.4 °F -16.6 °F 13% 30.23 in 9.0 mi SSW 4.6 mph - N/A   Clear
2:56 AM 33.8 °F 25.8 °F -14.8 °F 12% 30.22 in 10.0 mi ESE 10.4 mph 16.1 mph N/A   Clear
3:16 AM 33.8 °F 30.8 °F -14.8 °F 12% 30.23 in 10.0 mi SE 3.5 mph - N/A   Clear
3:36 AM 33.8 °F 30.8 °F -14.8 °F 12% 30.23 in 10.0 mi South 3.5 mph - N/A   Clear
3:56 AM 30.2 °F - -16.6 °F 13% 30.23 in 10.0 mi Calm Calm - N/A   Clear
4:16 AM 30.2 °F 24.3 °F -16.6 °F 13% 30.24 in 10.0 mi SW 5.8 mph - N/A   Clear
4:36 AM 30.2 °F 24.3 °F -16.6 °F 13% 30.24 in 10.0 mi SW 5.8 mph - N/A   Clear
4:56 AM 30.2 °F 25.4 °F -16.6 °F 13% 30.24 in 10.0 mi North 4.6 mph - N/A   Clear
5:16 AM 28.4 °F - -18.4 °F 12% 30.25 in 8.0 mi Calm Calm - N/A   Clear
5:36 AM 26.6 °F 22.6 °F -18.4 °F 13% 30.25 in 10.0 mi West 3.5 mph - N/A   Clear
5:56 AM 26.6 °F 21.2 °F -20.2 °F 12% 30.25 in 10.0 mi NNW 4.6 mph - N/A   Clear
6:16 AM 26.6 °F 21.2 °F -18.4 °F 13% 30.26 in 10.0 mi North 4.6 mph - N/A   Clear
6:36 AM 26.6 °F - -20.2 °F 12% 30.27 in 10.0 mi Calm Calm - N/A   Clear
6:56 AM 26.6 °F 20.0 °F -18.4 °F 13% 30.27 in 10.0 mi North 5.8 mph - N/A   Clear
7:16 AM 26.6 °F - -20.2 °F 12% 30.27 in 10.0 mi Calm Calm - N/A   Clear
7:36 AM 26.6 °F - -20.2 °F 12% 30.28 in 10.0 mi Calm Calm - N/A   Clear
7:56 AM 26.6 °F - -20.2 °F 12% 30.28 in 10.0 mi Calm Calm - N/A   Clear
8:16 AM 26.6 °F - -20.2 °F 12% 30.28 in 10.0 mi Calm Calm - N/A   Clear
8:36 AM 26.6 °F - -20.2 °F 12% 30.28 in 10.0 mi Calm Calm - N/A   Clear
8:56 AM 26.6 °F 22.6 °F -20.2 °F 12% 30.29 in 10.0 mi NW 3.5 mph - N/A   Clear
9:16 AM 24.8 °F - -20.2 °F 13% 30.30 in 10.0 mi Calm Calm - N/A   Clear
9:36 AM 26.6 °F - -20.2 °F 12% 30.30 in 10.0 mi Calm Calm - N/A   Clear
9:56 AM 26.6 °F - -20.2 °F 12% 30.29 in 10.0 mi Calm Calm - N/A   Clear
10:16 AM 26.6 °F - -20.2 °F 12% 30.30 in 10.0 mi Calm Calm - N/A   Clear
10:36 AM 28.4 °F 23.3 °F -18.4 °F 12% 30.30 in 10.0 mi South 4.6 mph - N/A   Clear
10:56 AM 33.8 °F 24.8 °F -14.8 °F 12% 30.30 in 10.0 mi SE 12.7 mph - N/A   Clear
11:16 AM 35.6 °F - -13.0 °F 12% 30.30 in 9.0 mi Calm Calm - N/A   Clear
11:36 AM 35.6 °F 27.1 °F -13.0 °F 12% 30.29 in 10.0 mi ESE 12.7 mph 16.1 mph N/A   Clear
11:56 AM 37.4 °F 28.9 °F -11.2 °F 12% 30.29 in 10.0 mi East 13.8 mph 24.2 mph N/A   Clear
12:16 PM 39.2 °F 29.8 °F -11.2 °F 11% 30.28 in 10.0 mi East 18.4 mph - N/A   Clear
12:36 PM 42.8 °F 41.1 °F -9.4 °F 11% 30.28 in 10.0 mi SE 3.5 mph - N/A   Clear
12:56 PM 41.0 °F 34.3 °F -9.4 °F 12% 30.27 in 10.0 mi ESE 11.5 mph - N/A   Clear
1:16 PM 39.2 °F 29.8 °F -9.4 °F 12% 30.26 in 10.0 mi SE 18.4 mph - N/A   Clear
1:36 PM 39.2 °F 29.8 °F -9.4 °F 12% 30.27 in 10.0 mi SSE 18.4 mph - N/A   Clear
1:56 PM 39.2 °F 30.5 °F -9.4 °F 12% 30.27 in 10.0 mi SE 16.1 mph - N/A   Clear
2:16 PM 39.2 °F 29.8 °F -9.4 °F 12% 30.27 in 10.0 mi SE 18.4 mph - N/A   Clear
2:36 PM 39.2 °F 30.2 °F -9.4 °F 12% 30.27 in 10.0 mi SE 17.3 mph - N/A   Clear
2:56 PM 39.2 °F 30.8 °F -11.2 °F 11% 30.28 in 10.0 mi SE 15.0 mph - N/A   Clear
3:16 PM 37.4 °F 28.5 °F -11.2 °F 12% 30.29 in 10.0 mi SSE 15.0 mph - N/A   Clear
3:36 PM 37.4 °F 28.5 °F -11.2 °F 12% 30.29 in 10.0 mi SSE 15.0 mph - N/A   Clear
3:56 PM 39.2 °F 30.8 °F -11.2 °F 11% 30.29 in 10.0 mi SSE 15.0 mph - N/A   Clear
4:16 PM 39.2 °F 31.6 °F -11.2 °F 11% 30.30 in 10.0 mi SSE 12.7 mph - N/A   Clear
4:36 PM 37.4 °F 29.8 °F -11.2 °F 12% 30.31 in 10.0 mi South 11.5 mph - N/A   Clear
4:56 PM 35.6 °F 28.6 °F -13.0 °F 12% 30.31 in 10.0 mi South 9.2 mph - N/A   Clear
5:16 PM 35.6 °F - -13.0 °F 12% 30.32 in 10.0 mi Calm Calm - N/A   Clear
5:36 PM 33.8 °F 28.6 °F -14.8 °F 12% 30.33 in 10.0 mi SSW 5.8 mph - N/A   Clear
5:56 PM 33.8 °F 27.0 °F -14.8 °F 12% 30.33 in 10.0 mi South 8.1 mph - N/A   Clear
6:16 PM 33.8 °F 27.7 °F -14.8 °F 12% 30.32 in 10.0 mi South 6.9 mph - N/A   Clear
6:36 PM 33.8 °F 28.6 °F -14.8 °F 12% 30.33 in 10.0 mi South 5.8 mph - N/A   Clear
6:56 PM 33.8 °F 26.4 °F -16.6 °F 11% 30.33 in 10.0 mi South 9.2 mph - N/A   Clear
7:16 PM 33.8 °F 27.0 °F -14.8 °F 12% 30.33 in 10.0 mi South 8.1 mph - N/A   Clear
7:36 PM 33.8 °F 26.4 °F -14.8 °F 12% 30.33 in 10.0 mi South 9.2 mph - N/A   Clear
7:56 PM 33.8 °F 27.7 °F -14.8 °F 12% 30.34 in 10.0 mi SE 6.9 mph - N/A   Clear
8:16 PM 35.6 °F 26.6 °F -14.8 °F 11% 30.33 in 10.0 mi ESE 13.8 mph - N/A   Clear
8:36 PM 37.4 °F 29.3 °F -11.2 °F 12% 30.34 in 10.0 mi SE 12.7 mph - N/A   Clear
8:56 PM 35.6 °F - -11.2 °F 13% 30.34 in 10.0 mi Calm Calm - N/A   Clear
9:16 PM 32.0 °F 27.5 °F -16.6 °F 12% 30.35 in 10.0 mi North 4.6 mph - N/A   Clear
9:36 PM 28.4 °F 24.6 °F -18.4 °F 12% 30.36 in 10.0 mi NNW 3.5 mph - N/A   Clear
9:56 PM 28.4 °F - -18.4 °F 12% 30.35 in 10.0 mi Calm Calm - N/A   Clear
10:16 PM 26.6 °F - -18.4 °F 13% 30.35 in 10.0 mi Calm Calm - N/A   Clear
10:36 PM 28.4 °F 24.6 °F -18.4 °F 12% 30.35 in 10.0 mi NNW 3.5 mph - N/A   Clear
10:56 PM 28.4 °F 23.3 °F -18.4 °F 12% 30.35 in 10.0 mi NNW 4.6 mph - N/A   Clear
11:16 PM 26.6 °F - -18.4 °F 13% 30.35 in 10.0 mi Calm Calm - N/A   Clear
11:36 PM 28.4 °F - -18.4 °F 12% 30.34 in 10.0 mi Calm Calm - N/A   Clear
11:56 PM 28.4 °F 22.2 °F -18.4 °F 12% 30.33 in 10.0 mi SSE 5.8 mph - N/A   Clear